Theta_e
325 325 327 328 329 330 328 328 327 327 327 327 327 327 329 330 331 331 333 333 332 331 330 330 329 330 330 330 330 330 330 329 327 324 324 324 321 322 325 325 325 326 326 324 321 318 316 316 319 324 326 326 327 327 327 327 326 326 325 324 323 323 324
325 325 327 328 328 327 327 326 325 326 326 327 326 327 327 328 329 329 331 332 332 331 331 330 330 330 330 330 329 329 328 328 328 328 325 323 324 323 323 323 324 323 324 324 324 321 316 315 317 320 321 324 326 327 328 328 327 326 326 325 325 324 324
323 323 325 325 326 326 326 326 324 324 325 325 326 325 325 327 327 327 328 329 330 331 331 330 329 329 329 329 330 330 330 328 327 326 325 324 325 326 325 324 322 322 323 322 322 321 320 319 316 318 321 320 319 323 327 327 327 327 327 327 326 326 324
320 319 319 320 322 324 325 325 324 323 323 324 324 325 324 325 326 327 326 326 328 330 331 330 329 329 329 330 331 330 328 325 325 327 325 325 326 326 325 325 323 322 321 320 320 321 320 318 317 317 321 322 321 321 324 327 327 327 327 326 326 327 326
319 319 319 319 321 322 323 324 324 324 323 324 325 326 326 326 326 325 325 325 326 327 328 329 329 329 329 329 329 328 328 328 328 328 326 326 326 326 326 326 325 325 324 323 323 323 321 320 320 319 319 322 322 322 323 324 326 327 327 327 327 327 327
319 319 319 320 320 320 321 321 322 322 323 323 324 325 326 327 327 326 326 325 325 325 327 328 329 329 329 329 329 330 330 329 327 327 326 326 327 326 326 327 326 326 325 326 326 324 324 324 321 318 319 322 319 321 323 323 323 326 328 327 327 327 328
318 319 319 319 319 319 320 319 320 321 321 321 322 322 324 326 327 327 327 327 326 325 326 326 326 327 328 328 329 329 329 330 329 328 328 328 329 328 328 327 326 326 326 327 326 326 324 322 320 319 318 318 320 320 322 322 324 322 324 327 328 328 328
317 317 317 318 317 317 318 318 319 320 320 320 320 321 323 324 324 325 326 326 326 326 326 325 326 326 327 328 328 329 330 330 330 330 329 329 328 328 328 327 326 326 327 327 327 326 326 324 323 321 319 315 316 319 319 322 322 322 323 325 328 327 328
316 315 315 315 315 316 316 317 317 318 318 318 318 319 320 321 322 323 323 324 326 326 327 327 327 327 327 327 328 329 328 330 329 329 329 329 328 328 328 328 326 326 327 328 328 327 327 326 325 324 322 320 316 313 317 318 320 321 324 322 326 328 328
311 311 312 311 312 313 313 314 314 315 315 315 315 317 316 317 319 320 321 319 317 319 322 323 324 325 327 327 328 328 328 329 328 328 328 328 328 328 327 327 327 327 328 328 328 328 327 327 326 326 324 322 320 317 313 314 318 319 323 324 321 325 328
309 309 309 309 310 310 310 310 311 312 312 312 313 313 313 313 315 316 318 313 313 313 314 313 314 317 320 324 326 328 328 329 328 328 328 328 327 327 327 327 327 326 327 327 328 328 328 328 326 326 324 324 323 319 317 315 316 321 321 324 324 322 326
308 308 309 309 308 309 310 310 309 310 310 310 309 309 310 310 311 312 315 310 310 310 310 310 309 310 312 315 318 322 326 327 326 326 327 327 327 327 326 326 326 325 326 326 327 327 328 327 326 326 325 324 323 322 320 318 315 318 323 321 324 325 325
308 308 308 308 308 309 309 309 308 308 308 309 308 308 308 308 308 308 312 310 307 307 306 306 306 307 307 308 310 312 314 317 322 325 326 327 327 327 326 326 326 325 326 325 326 326 326 326 326 325 324 323 323 322 321 319 316 316 320 322 322 324 325
307 309 308 308 308 307 308 307 307 307 307 306 307 306 306 306 306 306 307 309 305 304 304 303 303 304 304 304 304 307 310 311 313 318 324 326 327 327 326 326 326 326 327 325 325 326 326 326 326 325 324 324 323 323 321 319 316 316 316 318 321 322 325
308 308 307 306 306 306 305 305 305 305 304 305 305 305 305 305 305 305 305 307 305 303 302 302 302 301 301 300 301 302 304 305 307 311 316 321 325 326 326 325 326 327 327 326 326 326 326 325 325 324 324 323 323 322 323 320 318 317 316 316 318 321 323
307 306 305 305 304 304 303 303 303 301 301 302 303 304 304 304 304 303 303 304 304 302 301 301 301 300 299 299 299 300 301 302 303 306 310 315 320 324 325 325 325 326 327 325 325 325 326 325 325 324 324 324 323 323 323 323 320 317 317 316 318 319 321
304 304 303 303 302 302 302 302 302 300 300 300 300 301 303 303 303 302 302 302 302 302 301 300 299 299 298 298 298 298 299 300 301 303 306 311 316 321 324 324 325 326 325 324 324 324 325 325 324 324 324 324 324 323 323 323 322 319 318 317 316 319 320
302 302 302 302 301 301 301 301 301 301 299 299 299 299 300 302 301 301 301 301 301 300 300 299 298 298 297 297 297 297 298 299 300 301 303 307 313 317 322 323 324 325 325 323 323 323 324 324 325 324 323 324 323 323 323 323 322 322 319 317 317 318 319
301 302 302 301 301 301 301 300 300 300 300 298 298 298 298 299 300 300 300 300 300 300 299 298 298 297 296 296 296 297 297 298 299 300 301 304 308 312 318 323 324 325 324 324 323 324 324 324 324 323 323 323 323 323 322 322 322 321 320 319 318 316 318
301 301 301 301 301 300 300 300 300 299 300 298 297 297 297 297 299 299 299 300 299 299 299 298 297 297 296 295 296 296 296 297 299 300 302 303 305 308 313 321 324 324 324 325 324 324 324 323 323 323 323 323 323 323 321 321 321 320 320 318 318 318 318
301 302 301 300 300 300 300 299 299 299 299 298 297 297 296 297 298 298 299 299 299 299 298 297 297 296 295 295 295 296 296 297 299 300 301 303 304 307 311 317 323 325 325 325 325 325 325 323 323 322 323 323 322 322 321 320 320 319 319 318 317 316 317
300 300 301 300 299 299 299 299 299 298 298 297 298 297 297 297 297 297 298 298 298 298 298 297 297 295 294 294 295 295 297 298 299 300 302 303 305 307 311 315 320 324 326 327 320 319 320 320 323 322 322 323 322 321 321 320 319 318 318 318 317 317 316
299 299 299 299 299 298 298 298 298 297 297 297 296 297 296 296 296 297 297 297 297 298 298 297 298 296 295 295 295 296 298 300 303 304 304 304 306 309 312 314 317 320 318 317 315 311 308 309 314 321 323 322 321 321 320 319 318 318 318 316 316 316 315
297 297 297 298 298 298 298 297 296 296 296 296 296 296 295 294 294 296 296 296 296 297 297 297 294 292 292 294 296 297 299 302 305 306 306 305 305 307 307 308 309 314 318 319 318 308 306 305 305 306 309 314 318 322 320 319 318 318 317 317 317 316 315
295 295 295 295 296 296 296 296 296 295 295 295 295 295 294 294 294 294 295 295 296 296 296 296 292 292 292 292 295 297 300 302 303 303 302 303 303 303 303 304 305 307 310 313 317 321 313 306 303 303 303 303 305 308 311 318 319 318 318 317 316 316 316
294 293 294 294 294 294 294 294 294 294 294 295 294 294 293 293 293 293 293 293 294 295 295 294 292 292 292 292 292 296 300 301 301 301 301 301 301 301 301 301 302 303 305 308 310 315 322 320 307 303 303 303 303 303 302 304 308 320 320 319 318 317 317
292 292 292 292 292 292 292 291 292 293 293 293 292 292 292 292 292 292 293 292 293 293 294 294 292 292 292 292 292 294 299 300 300 300 300 300 300 299 299 300 300 300 300 301 303 307 306 313 321 316 310 309 312 311 303 300 301 303 311 320 319 318 319
291 291 291 291 291 290 290 290 290 291 291 291 291 291 290 291 292 292 292 292 292 292 293 293 291 291 292 291 292 295 297 299 299 299 299 299 299 298 299 299 299 298 297 297 300 300 299 300 307 318 314 312 313 315 315 313 312 312 313 319 321 321 321
290 290 290 290 290 289 289 289 289 290 290 289 290 290 290 290 290 290 291 291 291 291 292 292 291 291 292 291 293 296 296 297 297 297 297 297 297 298 298 298 298 296 296 296 297 294 294 295 301 313 316 314 314 313 311 306 300 301 311 318 321 321 321
290 290 289 289 289 288 288 288 288 290 288 288 289 289 289 289 289 289 290 291 291 290 291 293 291 291 291 291 293 295 296 296 296 296 296 297 297 297 297 298 297 295 295 295 295 291 291 292 300 311 316 313 311 309 307 304 296 293 293 294 295 297 302
289 289 289 288 288 288 288 288 288 289 287 287 288 288 289 288 289 289 289 289 292 290 291 293 292 291 291 291 293 294 295 294 295 295 295 296 296 296 297 299 300 295 294 294 292 291 291 293 302 311 315 311 307 306 304 305 305 301 294 295 295 296 296
289 288 288 288 288 288 288 288 288 288 287 287 288 287 291 288 288 289 289 290 294 291 290 292 292 291 291 292 293 293 294 293 294 294 294 294 295 295 295 296 297 294 294 293 291 291 291 295 304 310 314 312 307 305 303 305 304 304 305 305 304 305 303
289 288 288 288 288 288 288 288 287 287 287 287 288 288 288 288 287 288 289 289 290 290 291 291 292 291 292 292 292 293 293 292 292 293 293 293 293 293 294 294 295 292 291 291 291 291 291 292 304 311 311 309 306 303 305 304 303 304 303 302 302 302 302
289 288 287 288 288 288 288 287 287 287 287 288 288 288 288 288 288 288 288 289 289 290 292 292 292 292 291 292 291 291 291 291 292 293 293 292 292 292 292 293 293 292 291 291 291 291 291 292 294 302 305 305 304 303 302 303 302 301 302 301 301 301 301
289 290 289 288 287 287 287 288 288 286 286 287 287 287 287 288 288 288 288 289 290 289 291 294 291 292 291 291 291 291 291 291 291 293 292 292 292 291 291 292 292 292 290 291 291 291 291 292 292 297 294 293 293 295 303 303 303 302 302 301 300 299 299
289 290 289 288 286 286 286 287 287 287 286 287 287 287 287 287 287 287 288 289 289 289 289 291 293 292 292 291 291 291 291 291 290 293 292 291 291 291 292 291 292 292 290 291 291 291 291 291 293 292 291 293 294 295 298 301 300 300 299 299 298 297 297
287 286 288 287 287 286 286 286 287 287 286 286 286 286 286 287 286 286 286 287 288 289 289 289 291 292 292 291 291 291 291 290 291 291 292 291 292 292 291 291 291 290 290 290 291 291 291 291 291 291 291 292 294 296 300 299 298 298 296 296 296 296 296
Wind_Speed
3 2 4 4 4 4 6 6 5 5 5 3 3 3 3 3 4 4 5 5 5 6 5 5 6 6 6 7 7 7 6 4 6 8 7 6 8 5 6 9 8 7 4 3 2 5 3 4 5 4 6 8 7 8 9 9 9 9 8 7 8 8 7
3 2 1 2 4 4 6 6 6 6 6 6 5 5 4 3 3 3 3 4 5 5 5 5 5 6 7 8 7 7 7 8 7 5 5 6 6 7 6 7 7 6 5 5 4 2 3 5 6 7 6 5 7 8 8 8 8 8 9 9 8 8 8
3 2 1 4 5 5 6 7 6 7 7 7 7 5 6 5 5 4 3 4 4 4 5 5 6 6 6 7 7 7 9 8 4 5 8 9 8 7 7 6 6 6 6 6 6 5 4 4 6 6 9 9 9 9 8 9 9 9 8 7 8 8 8
2 2 5 7 6 6 7 6 6 6 6 6 6 6 5 6 6 4 4 5 4 5 5 5 5 6 7 7 7 7 5 6 5 6 7 8 6 6 7 7 8 8 9 9 9 8 7 6 6 7 8 9 12 9 10 10 9 9 8 7 8 8 8
3 5 6 6 7 7 6 6 6 6 7 6 7 7 8 8 7 6 5 5 5 5 5 5 5 5 6 6 6 6 5 6 6 6 6 7 9 8 8 7 8 8 7 8 8 8 9 10 9 7 7 6 7 8 3 7 7 8 8 9 9 8 8
6 6 6 7 6 6 5 6 6 6 6 7 8 8 9 10 8 7 7 6 6 5 5 5 5 6 7 6 7 7 7 7 6 6 6 8 9 8 7 7 7 8 9 8 7 7 7 7 7 7 6 5 8 8 5 6 7 8 8 9 8 8 8
7 6 6 6 5 5 4 5 5 6 6 7 8 8 8 8 8 8 8 7 6 6 5 5 6 6 6 7 7 7 7 6 6 7 9 9 8 9 8 7 8 9 9 8 8 8 8 8 8 9 5 4 5 5 3 5 5 6 6 8 8 8 8
6 6 6 5 6 6 6 5 5 5 6 6 7 7 8 9 9 8 9 8 8 8 7 7 6 6 6 7 7 7 6 6 7 7 7 8 8 9 8 8 8 8 8 8 8 9 8 9 9 9 8 7 5 5 5 6 5 10 8 7 9 9 10
7 6 6 7 6 6 6 6 6 6 6 7 6 7 9 8 8 9 9 10 11 10 9 8 8 7 7 7 7 6 7 5 7 8 7 7 9 10 10 9 8 9 8 8 9 9 9 9 9 7 8 9 9 7 5 5 7 8 9 7 6 10 9
8 8 7 7 7 6 6 6 7 6 7 7 7 7 8 8 8 9 9 11 11 11 11 11 10 9 9 8 7 7 7 6 6 7 7 7 8 8 8 10 9 8 8 8 9 9 9 10 10 9 8 9 8 8 6 7 8 7 7 9 7 8 10
7 7 7 7 6 6 6 6 6 8 9 8 7 7 7 8 8 10 8 10 9 10 10 11 11 11 11 8 8 8 7 8 7 6 7 7 8 8 9 9 8 8 8 7 7 8 8 9 9 9 9 9 8 10 8 8 8 7 6 8 8 6 8
7 7 6 6 6 6 7 7 7 7 8 9 8 9 9 9 9 9 8 9 9 9 9 10 10 10 10 9 10 9 9 9 8 9 8 8 8 8 8 9 9 8 7 8 8 8 7 7 8 8 9 8 8 9 8 7 8 5 7 7 8 6 8
7 6 6 6 7 8 8 9 8 7 7 7 7 8 8 8 9 9 8 8 10 10 10 9 9 9 10 8 8 9 10 11 11 10 9 8 8 8 9 10 9 9 8 8 8 8 8 8 6 7 8 8 8 8 7 7 9 10 5 8 6 7 8
7 7 8 8 8 8 8 9 8 7 6 7 8 8 8 9 9 9 9 8 9 9 10 10 9 8 8 9 9 8 9 10 10 10 9 10 8 8 8 9 9 9 8 7 7 7 8 9 8 9 8 8 9 8 9 8 9 9 4 3 5 7 7
7 7 7 8 9 8 8 9 9 9 9 9 8 8 8 8 9 9 9 9 9 10 10 10 10 9 10 11 11 9 9 11 11 11 10 10 9 8 8 9 9 9 8 8 8 8 6 7 7 7 8 8 8 8 9 9 9 9 9 2 5 4 6
6 7 7 7 8 8 8 7 8 9 9 8 8 8 8 8 9 9 9 10 10 10 11 10 10 10 10 11 11 11 10 10 10 11 11 11 11 9 9 8 9 8 7 7 7 7 7 8 8 9 9 8 9 9 9 11 9 10 10 7 4 6 7
6 6 6 6 8 7 7 7 7 8 7 7 8 8 8 9 9 10 10 11 11 11 12 12 12 11 11 11 11 12 12 12 11 11 11 11 11 10 9 9 8 7 6 8 8 7 7 7 7 8 10 9 10 10 10 11 11 9 7 8 6 8 7
5 6 6 6 7 7 7 7 7 7 8 8 8 8 9 8 9 10 10 11 11 11 12 12 13 13 12 12 12 12 12 11 11 12 11 11 12 12 10 9 9 8 7 8 7 7 7 8 7 7 7 8 9 8 8 9 10 9 7 9 7 5 5
5 5 5 5 6 6 6 7 7 7 7 8 8 8 9 8 9 9 10 10 10 11 11 12 12 13 13 13 12 12 11 11 11 12 12 12 11 11 12 10 9 8 8 9 8 8 8 9 9 9 8 8 8 8 9 9 9 9 10 9 7 5 5
4 4 5 5 5 5 5 6 7 8 7 7 8 8 9 9 9 9 9 10 10 11 12 12 13 14 14 13 12 12 12 11 10 9 10 12 12 11 12 12 9 8 9 9 9 9 9 9 9 10 10 10 9 9 9 9 8 10 10 10 7 7 7
4 5 5 5 5 5 5 5 6 6 7 8 8 9 9 9 8 9 9 10 10 10 11 11 13 14 14 13 13 12 11 10 11 10 10 10 11 12 12 13 11 9 9 9 8 8 9 8 8 9 9 9 10 10 9 8 8 9 10 9 8 7 7
4 4 4 5 6 6 6 6 5 6 7 7 7 8 8 8 9 9 10 10 11 11 10 11 11 14 14 15 13 12 12 11 11 11 11 11 9 10 11 11 12 9 10 13 13 10 10 9 7 7 7 8 9 9 8 7 7 8 8 9 9 7 5
6 5 5 5 5 5 6 6 6 6 7 7 7 8 8 8 9 10 11 12 11 9 9 9 19 24 19 14 14 11 10 10 11 11 10 10 10 9 11 11 12 18 17 15 14 14 14 14 12 10 8 7 9 8 8 8 8 8 8 9 9 9 9
7 7 6 6 6 6 6 6 6 6 6 7 8 8 8 9 9 9 9 9 9 9 9 13 25 21 21 24 16 11 10 9 9 11 11 11 10 11 11 12 12 15 15 12 11 14 15 15 15 15 15 14 12 10 9 9 8 8 9 9 8 8 9
7 7 7 7 7 6 6 7 7 7 7 8 7 7 9 8 8 8 8 9 9 10 9 20 23 23 23 24 22 14 9 9 10 10 10 9 10 9 10 10 10 8 10 15 16 9 10 14 15 15 16 14 14 16 14 11 9 8 9 9 9 10 10
6 7 6 6 6 7 7 8 8 8 9 7 6 8 8 9 9 8 8 9 9 10 10 20 22 24 23 23 23 18 9 10 10 10 9 10 9 10 10 11 11 9 9 19 14 13 10 8 11 16 15 14 13 13 16 18 16 12 10 11 11 10 11
6 6 6 6 7 7 8 8 7 7 6 7 7 7 8 8 8 9 9 9 8 9 10 19 23 23 23 24 22 17 11 10 10 10 12 11 9 11 10 10 10 12 12 11 10 12 13 13 6 6 5 7 8 10 12 14 15 16 13 11 11 11 10
7 6 6 6 7 7 8 7 8 7 6 6 7 8 8 8 8 8 9 8 8 9 10 21 21 23 23 23 22 15 11 10 10 11 11 11 11 10 11 10 10 11 13 12 10 12 13 12 11 6 6 8 9 9 8 8 9 9 10 9 10 12 11
6 6 6 7 8 8 7 7 7 6 6 7 6 6 7 6 8 9 9 9 8 10 10 19 21 21 22 23 19 12 12 11 11 12 12 12 12 10 10 12 11 12 13 12 15 19 16 11 9 9 6 6 7 6 4 4 4 6 7 9 9 10 9
6 6 6 8 8 8 7 8 8 6 7 7 7 7 7 6 6 7 9 9 10 9 10 16 21 21 21 23 15 11 11 11 11 12 11 12 11 12 10 15 15 13 13 13 18 20 18 12 7 7 6 6 5 3 4 1 2 4 8 10 10 10 8
6 6 7 7 7 6 6 6 6 5 6 6 7 7 6 7 6 7 8 9 10 9 9 14 20 20 21 22 17 11 11 11 10 11 11 12 11 11 13 23 22 15 14 15 22 20 19 10 6 6 6 6 5 3 2 3 2 3 3 3 4 3 3
6 6 6 6 6 6 6 5 4 5 5 5 5 5 6 6 7 7 7 7 13 12 9 12 18 19 21 21 17 10 11 11 11 12 11 12 11 11 12 13 22 21 17 19 24 23 22 11 5 5 6 5 5 4 1 3 4 4 4 5 6 5 5
4 5 6 5 6 6 4 5 7 6 6 6 6 6 6 6 8 8 7 8 9 9 10 11 14 20 20 20 20 13 9 11 14 13 12 12 12 12 12 12 16 24 25 25 25 26 24 22 8 2 1 2 3 4 3 6 7 5 6 6 5 6 6
5 4 4 4 4 5 5 6 6 6 6 6 6 8 8 7 8 8 8 8 8 9 9 11 13 19 19 20 20 16 10 12 11 11 11 11 12 13 14 14 13 22 24 25 25 26 26 24 21 13 10 6 5 5 6 6 8 9 7 6 6 7 7
4 4 4 5 6 7 6 5 5 5 6 6 7 8 7 8 8 8 8 8 8 9 11 15 12 17 20 20 19 20 12 11 12 9 11 11 12 11 13 13 13 20 23 23 24 26 27 23 24 15 15 14 15 14 8 7 5 6 7 6 7 8 8
4 3 4 5 5 5 5 5 5 5 6 6 7 8 9 8 8 8 8 9 8 9 9 10 17 15 19 20 20 20 19 14 17 11 10 11 12 12 11 12 13 22 23 22 22 25 26 26 20 19 23 17 16 14 10 8 8 8 8 8 9 9 8
3 4 4 4 4 4 5 4 5 6 6 7 7 8 8 8 7 8 9 9 9 9 8 8 11 17 16 19 18 19 19 20 19 12 10 10 10 11 11 12 14 21 21 21 21 21 24 24 20 25 24 22 18 13 9 9 9 8 8 9 9 9 8
Wind_Direction
55 33 6 4 359 358 6 4 350 350 346 344 318 293 268 261 261 264 263 264 268 259 249 242 253 258 257 257 255 252 252 225 198 227 237 193 200 217 215 231 237 245 219 248 286 245 214 180 219 231 227 206 205 210 208 208 203 199 195 196 190 190 190
25 14 349 15 21 10 18 358 360 348 347 344 348 340 324 311 297 287 285 280 269 264 257 263 263 268 271 273 259 251 250 249 233 217 211 215 200 220 183 214 225 228 237 242 238 236 212 207 229 200 200 196 212 211 212 211 211 203 198 197 193 188 190
16 346 353 35 26 19 23 7 358 356 349 344 343 340 338 334 326 317 304 294 293 285 277 263 270 270 272 274 269 255 247 236 200 204 220 230 215 217 207 200 199 216 228 234 224 221 245 226 226 211 204 189 199 214 206 208 209 205 200 197 197 192 192
17 35 40 29 15 22 19 6 1 347 345 342 337 337 341 337 332 325 320 311 307 302 295 285 274 281 282 281 284 291 278 255 244 212 205 229 231 224 218 208 212 206 208 212 215 208 216 220 228 231 211 207 210 211 212 210 205 204 199 197 199 198 192
51 49 48 39 23 22 10 2 355 349 353 346 346 345 348 345 340 329 320 319 318 314 301 286 278 275 281 283 278 267 259 255 251 236 216 230 228 228 220 213 218 218 221 222 220 207 203 218 213 221 206 203 220 225 182 198 211 206 203 202 205 202 196
44 42 40 38 23 19 4 3 2 358 352 353 350 351 350 343 342 339 336 330 322 309 292 287 283 285 286 279 278 272 259 253 247 245 230 223 224 222 224 218 219 217 223 226 224 215 215 215 213 226 220 192 210 210 198 168 201 211 207 208 204 203 198
39 38 38 35 24 14 3 358 6 358 352 355 346 352 339 343 351 345 340 332 320 310 302 295 292 288 282 278 275 272 266 259 244 233 236 241 241 238 232 227 219 221 224 221 218 221 215 207 216 220 208 202 224 223 167 190 186 190 222 216 206 202 200
35 32 32 27 25 11 3 360 4 359 0 353 350 337 344 352 350 352 352 349 342 333 325 318 314 305 294 287 282 276 271 263 257 253 253 251 249 245 238 232 231 226 224 222 214 213 209 214 214 206 195 195 210 219 208 193 190 210 214 209 203 202 202
27 26 25 22 15 12 9 6 3 1 1 356 345 346 353 348 350 355 356 358 356 350 340 333 327 320 310 301 293 285 280 271 268 265 264 260 258 255 252 245 234 233 226 221 217 212 211 211 216 204 195 203 207 216 210 217 202 224 209 210 205 209 200
29 26 19 13 7 4 12 10 7 4 5 4 352 354 352 349 350 1 5 15 5 358 360 359 351 343 333 317 304 295 290 283 272 270 267 262 261 259 254 249 245 242 237 228 220 216 212 212 212 207 199 204 203 218 206 217 216 215 202 202 206 210 200
27 25 23 18 8 8 9 9 6 11 9 2 0 355 355 354 1 1 18 13 5 5 7 6 359 354 347 337 325 311 299 295 289 284 278 273 267 258 253 253 248 242 237 231 230 219 213 209 204 204 202 207 199 209 210 214 232 202 214 200 209 198 192
26 27 23 18 14 14 15 12 10 9 8 9 5 2 0 2 4 354 17 15 5 4 2 6 359 356 351 347 344 334 322 305 288 278 272 270 267 261 259 256 252 249 240 239 233 225 218 208 208 204 208 199 200 205 202 202 234 232 192 209 209 193 185
32 28 24 18 20 20 21 17 13 8 10 5 6 6 6 5 1 356 5 17 7 5 1 359 354 351 353 347 342 339 333 328 317 301 283 270 266 262 260 259 252 248 242 232 235 231 224 220 203 202 206 204 203 200 193 200 214 237 185 211 202 195 184
32 30 27 26 27 26 21 20 13 8 4 13 6 7 8 5 5 360 359 12 15 2 359 356 356 351 346 341 340 330 326 330 323 319 312 293 278 272 266 263 261 256 250 237 229 226 222 217 201 200 201 200 202 197 197 203 218 242 247 215 182 192 183
36 33 34 28 34 28 24 20 15 14 16 10 8 7 5 9 7 2 5 4 12 4 360 359 358 355 349 342 334 332 327 328 325 318 318 312 296 279 274 270 264 259 253 243 238 233 219 214 204 195 197 198 199 198 195 197 213 226 233 202 206 187 171
40 39 35 32 30 29 25 26 26 24 21 14 11 12 3 9 9 6 10 8 8 5 0 356 354 351 347 339 330 325 321 319 318 315 313 308 305 297 283 275 271 264 253 246 239 237 226 219 212 208 207 204 206 203 196 199 201 218 224 223 191 179 183
40 35 36 27 29 26 25 26 26 28 22 19 19 9 12 14 12 11 10 8 8 4 359 356 351 350 343 335 329 322 318 316 311 307 304 302 302 298 288 283 278 274 253 240 235 227 224 219 208 208 210 206 208 205 197 199 206 206 207 212 207 197 190
38 39 37 30 30 27 25 25 23 25 21 22 18 16 15 13 17 15 11 9 6 4 1 355 349 344 339 333 326 320 314 311 308 305 300 296 297 296 291 284 278 269 258 251 246 237 226 218 209 209 208 203 206 205 202 201 205 205 204 210 209 206 181
35 38 38 30 25 22 24 25 22 22 22 22 21 21 18 11 19 15 13 9 5 2 358 353 348 342 335 329 325 319 310 305 303 302 300 299 297 296 295 286 278 266 260 252 246 239 231 220 213 211 209 208 206 204 206 201 201 203 212 217 208 186 190
35 36 32 26 20 20 20 19 22 21 17 19 22 22 18 17 14 15 14 9 7 1 356 353 349 344 336 329 323 317 311 304 297 295 299 302 300 297 295 290 276 267 263 257 251 241 233 224 215 214 211 211 209 214 210 203 194 198 207 215 217 205 200
35 37 33 26 25 21 17 16 18 17 18 20 22 20 17 16 14 17 17 12 7 2 357 352 351 347 339 330 325 317 308 304 303 300 297 297 303 303 300 297 288 276 267 260 253 245 237 231 218 218 214 210 210 210 206 202 197 198 203 210 211 209 209
32 32 26 28 28 23 20 18 14 17 22 22 21 19 16 14 16 21 20 15 11 5 2 357 356 349 337 334 330 316 311 306 304 305 309 309 303 303 303 302 303 287 274 273 266 255 246 236 223 224 215 208 206 200 202 200 201 195 202 203 208 212 202
32 30 24 21 20 18 18 18 19 20 22 21 19 19 17 15 16 20 19 16 12 3 3 359 351 345 344 341 332 322 310 315 319 315 316 318 317 316 318 316 312 308 301 287 271 254 246 244 239 225 226 221 215 203 198 202 200 201 203 204 208 203 196
35 33 27 23 16 13 10 10 12 15 16 17 19 16 16 17 14 7 5 357 358 4 1 357 350 348 348 348 343 328 321 317 327 338 344 343 339 342 341 338 333 328 319 293 270 259 248 243 242 238 234 219 214 208 201 202 198 196 202 206 201 201 207
38 32 31 26 22 19 16 13 11 9 9 10 10 12 18 15 12 7 4 1 2 1 358 357 351 353 352 351 349 340 330 340 349 350 347 344 343 342 338 337 335 334 331 332 324 280 250 243 243 241 240 234 222 216 209 201 197 198 201 204 203 205 198
38 32 25 24 22 22 21 19 17 14 12 4 0 11 10 10 12 8 7 5 1 356 356 357 353 354 355 354 349 348 344 347 352 349 347 348 343 344 341 340 341 337 333 331 329 320 298 248 237 241 240 242 238 224 215 215 208 204 198 205 213 213 207
39 30 24 24 24 25 23 21 15 12 9 6 10 7 6 9 7 10 8 5 359 356 359 357 355 356 357 355 350 345 346 349 350 350 351 347 343 346 345 344 340 338 335 329 320 327 333 318 279 217 217 213 233 238 238 234 227 218 207 207 209 217 217
36 27 25 26 28 28 25 18 17 9 8 6 6 5 2 4 5 6 4 2 4 1 1 359 358 358 358 356 350 353 352 352 359 356 356 353 350 341 342 345 342 334 331 325 315 322 318 315 311 273 197 215 226 231 219 216 220 216 218 220 215 215 214
36 31 29 31 32 27 25 21 17 2 7 5 1 0 3 7 5 3 0 2 5 3 358 0 1 1 360 359 350 3 356 357 1 359 356 356 351 346 343 353 346 341 333 323 319 318 309 302 291 283 231 213 225 226 216 184 253 268 240 222 218 218 219
42 37 33 37 33 28 23 15 14 8 13 8 5 5 2 357 354 358 0 3 6 1 359 0 3 2 2 2 358 0 1 357 0 358 354 354 354 350 349 358 356 343 336 334 329 321 310 304 275 273 247 222 223 218 237 122 49 309 286 278 284 294 282
45 39 38 38 31 26 22 19 17 6 18 5 8 357 352 356 358 2 3 2 4 2 356 358 4 3 5 5 4 360 359 355 351 359 353 356 354 354 355 360 3 354 343 341 339 337 326 299 258 251 245 195 180 209 286 22 61 41 31 58 40 29 42
46 44 44 35 32 30 19 17 0 8 16 14 10 355 1 4 359 5 4 2 2 6 357 357 3 5 6 8 9 6 3 357 352 358 357 357 355 354 355 355 2 2 357 353 355 356 348 328 251 282 250 194 171 173 59 48 39 42 32 26 12 12 16
48 48 43 35 30 29 14 19 13 13 12 14 9 7 6 8 7 2 356 2 3 2 358 358 360 4 8 9 11 12 6 5 357 355 357 360 355 356 354 356 360 3 2 4 5 6 2 9 344 262 57 79 73 49 63 65 54 67 62 65 59 39 25
60 45 42 41 34 31 25 20 12 16 11 7 16 17 14 8 8 3 0 1 3 3 2 1 358 4 6 9 11 14 11 11 356 355 354 358 359 358 356 357 357 357 1 9 13 13 13 15 23 21 21 51 62 89 75 78 69 76 70 60 63 59 42
54 58 42 40 39 33 18 20 20 16 12 15 20 20 13 11 7 3 1 4 4 1 357 4 5 2 5 7 9 14 17 10 3 357 2 2 358 1 356 353 355 355 358 10 17 20 19 17 25 31 21 38 51 52 52 59 57 60 68 57 56 49 46
53 48 50 42 46 39 16 21 15 17 21 21 23 22 15 8 6 3 1 1 360 360 357 357 6 6 3 5 6 9 13 13 9 13 10 6 3 357 353 353 351 358 4 5 17 24 25 21 24 26 18 21 40 47 53 56 52 55 54 50 53 53 44
50 41 45 44 46 42 27 20 25 21 18 25 21 23 15 6 6 8 3 352 355 355 354 357 357 5 3 3 5 7 8 10 13 12 14 13 3 360 357 357 355 3 8 9 13 24 28 28 26 27 24 14 28 35 48 53 56 56 57 52 51 52 45